Regional Weather Roundup
Issued by NWS Goodland, KS

Home | Current Version | Previous Version | Graphics & Text | Print | Product List | Glossary On
Versions: 1 2 3 4 5 6 7 8 9 10 11 12 13 14 15 16 17 18 19 20 21 22 23 24 25 26 27 28 29 30 31 32 33 34 35 36 37 38 39 40 41 42 43 44 45 46 47 48 49 50
000
ASUS43 KGLD 262259
RWRGLD

GOODLAND FORECAST AREA HOURLY WEATHER ROUNDUP
NATIONAL WEATHER SERVICE GOODLAND KS
500 PM MDT SUN MAR 26 2017

...OFFICIAL OBSERVATIONS...

CITY           SKY/WX    TMP DP  RH WIND       PRES   REMARKS
GOODLAND KS    CLOUDY    47  43  86 N7        29.89R
HILL CITY KS   CLOUDY    47  45  93 NE3       29.89R
IMPERIAL NEB   CLOUDY    56  39  53 N8        29.87R
MCCOOK NEB     CLOUDY    53  41  63 S3        29.87R
AKRON CO       CLOUDY    50  36  58 NW9       29.90S
BURLINGTON CO  CLOUDY    49  40  71 NE8       29.90S
LIMON CO       PTSUNNY   51  35  54 N8        29.92R
$$

...UNOFFICIAL OBSERVATIONS...

CITY           SKY/WX    TMP DP  RH WIND       PRES   REMARKS
LENORA KS        N/A     45  32  60 CALM        N/A
NORTON KS      CLOUDY    48  41  76 CALM      29.87R
SHARON SPRINGS   N/A     42  41  96 NE7         N/A
TRENTON NEB      N/A     52  32  46 CALM        N/A
YUMA CO        CLOUDY    50  36  57 N5        29.89S
$$




USA.gov is the U.S. government's official web portal to all federal, state and local government web resources and services.